Weather History for Omak, WA

Change the Weather History Date:

Saturday, September 1, 2012

  Actual Average Record
Temperature  
Mean Temperature 65 °F 68 °F  
Max Temperature 79 °F 83 °F 99 °F (1938)
Min Temperature 51 °F 53 °F 34 °F (1959)
Degree Days  
Heating Degree Days 0 2  
Month to date heating degree days 0 2  
Since 1 July heating degree days 19 33  
Cooling Degree Days 0 5  
Month to date cooling degree days 0 5  
Year to date cooling degree days 581 611  
Growing Degree Days 16 (Base 50)    
Moisture  
Dew Point 34 °F    
Average Humidity 36    
Maximum Humidity 54    
Minimum Humidity 17    
Precipitation  
Precipitation 0.00 in 0.01 in 0.99 in (1944)
Month to date precipitation 0.00 0.01  
Year to date precipitation 10.76 9.03  
Sea Level Pressure  
Sea Level Pressure 29.94 in    
Wind  
Wind Speed 7 mph (NW)    
Max Wind Speed 15 mph    
Max Gust Speed 18 mph    
Visibility 10 miles    
Events      
T = Trace of Precipitation, MM = Missing Value Source: NWS Daily Summary

Daily Weather History Graph

Daily Weather History Graph

Search for Another Location

Airport:

Trip Planner

Search our weather history database for the weather conditions in past years. The results will help you decide how hot, cold, wet, or windy it might be!

Date:

Astronomy

Sep. 01, 2012 Rise Set
Actual Time 6:16 AM PDT 7:38 PM PDT
Civil Twilight 5:43 AM PDT 8:10 PM PDT
Nautical Twilight 5:04 AM PDT 8:50 PM PDT
Astronomical Twilight 4:21 AM PDT 9:32 PM PDT
Moon 7:44 PM PDT (9/1) 7:40 AM PDT (9/1)
Length of Visible Light 14h 27m
Length of Day
13h 22m
Full, 98% of the Moon is Illuminated
Sep 1
Full
Sep 8
Last Quarter
Sep 15
New
Sep 22
First Quarter
Sep 29
Full

Hourly Weather History & Observations

Time (PDT) Temp. Dew Point Humidity Pressure Visibility Wind Dir Wind Speed Gust Speed Precip Events Conditions
12:53 AM 64.0 °F 35.1 °F 34% 29.82 in 10.0 mi North 10.4 mph - N/A   Clear
1:53 AM 61.0 °F 34.0 °F 36% 29.84 in 10.0 mi North 9.2 mph - N/A   Clear
2:53 AM 57.9 °F 34.0 °F 41% 29.85 in 10.0 mi North 8.1 mph - N/A   Partly Cloudy
3:53 AM 57.0 °F 36.0 °F 45% 29.88 in 10.0 mi NNW 6.9 mph - N/A   Mostly Cloudy
4:53 AM 55.9 °F 37.0 °F 49% 29.90 in 10.0 mi NNW 9.2 mph - N/A   Clear
5:53 AM 55.9 °F 36.0 °F 47% 29.92 in 10.0 mi NNW 10.4 mph - N/A   Clear
6:53 AM 54.0 °F 37.9 °F 55% 29.95 in 10.0 mi NNW 8.1 mph - N/A   Clear
7:53 AM 62.1 °F 37.9 °F 41% 29.97 in 10.0 mi North 6.9 mph - N/A   Clear
8:53 AM 64.9 °F 39.0 °F 39% 29.98 in 10.0 mi NNE 13.8 mph - N/A   Clear
9:53 AM 68.0 °F 37.0 °F 32% 30.00 in 10.0 mi Variable 5.8 mph - N/A   Clear
10:53 AM 71.1 °F 36.0 °F 28% 30.00 in 10.0 mi Variable 5.8 mph - N/A   Clear
11:53 AM 71.1 °F 35.1 °F 27% 29.99 in 10.0 mi West 4.6 mph - N/A   Clear
12:53 PM 73.0 °F 34.0 °F 24% 29.98 in 10.0 mi South 6.9 mph - N/A   Clear
1:53 PM 73.9 °F 34.0 °F 23% 29.96 in 10.0 mi Calm Calm - N/A   Clear
2:53 PM 77.0 °F 32.0 °F 19% 29.94 in 10.0 mi Variable 4.6 mph - N/A   Clear
3:53 PM 78.1 °F 30.9 °F 18% 29.93 in 10.0 mi South 6.9 mph - N/A   Clear
4:53 PM 79.0 °F 32.0 °F 18% 29.91 in 10.0 mi SSW 8.1 mph - N/A   Clear
5:53 PM 78.1 °F 32.0 °F 19% 29.91 in 10.0 mi SSW 9.2 mph - N/A   Clear
6:53 PM 75.0 °F 32.0 °F 21% 29.92 in 10.0 mi SW 5.8 mph - N/A   Clear
7:53 PM 66.0 °F 32.0 °F 28% 29.94 in 10.0 mi WNW 6.9 mph - N/A   Clear
8:53 PM 66.9 °F 32.0 °F 27% 29.96 in 10.0 mi Variable 6.9 mph - N/A   Clear
9:53 PM 66.0 °F 33.1 °F 29% 29.96 in 10.0 mi WNW 8.1 mph - N/A   Clear
10:53 PM 59.0 °F 33.1 °F 38% 29.98 in 10.0 mi Calm Calm - N/A   Clear
11:53 PM 57.0 °F 34.0 °F 42% 29.99 in 10.0 mi WNW 5.8 mph - N/A   Clear